CTV544 WIHH-WAHI

Flight info

Callsign CTV544
Flight time 0h 45m
Altitude 33000
Route PW W17 CLP
Aircraft A320/M-SDE3FGHIRWY/LB1

Departure

Time 2026-04-21 03:00
Airport Halim Perdanakusuma International Airport (WIHH)

Arrival

Time 2026-04-21 03:46
Airport Yogyakarta International Airport (WAHI)
Time Latitude Longitude Altitude Speed Heading
2026-04-21 02:46 -6.26598 106.88638 93 ft 0 kts 337°
2026-04-21 02:53 -6.26605 106.88641 94 ft 4 kts 339°
2026-04-21 02:53 -6.26623 106.88648 93 ft 1 kts 339°
2026-04-21 02:53 -6.26626 106.88649 93 ft 0 kts 339°
2026-04-21 02:56 -6.26630 106.88640 93 ft 3 kts 231°
2026-04-21 02:56 -6.26661 106.88603 93 ft 11 kts 229°
2026-04-21 02:57 -6.26707 106.88517 93 ft 12 kts 245°
2026-04-21 02:57 -6.26760 106.88480 94 ft 9 kts 168°
2026-04-21 02:57 -6.26817 106.88506 92 ft 9 kts 155°
2026-04-21 02:57 -6.26877 106.88533 91 ft 10 kts 157°
2026-04-21 02:58 -6.26940 106.88503 92 ft 13 kts 241°
2026-04-21 02:58 -6.26989 106.88396 92 ft 20 kts 245°
2026-04-21 02:58 -6.27055 106.88255 93 ft 25 kts 246°
2026-04-21 02:58 -6.27133 106.88081 92 ft 30 kts 245°
2026-04-21 02:59 -6.27173 106.87932 95 ft 12 kts 279°
2026-04-21 02:59 -6.27208 106.87919 95 ft 7 kts 93°
2026-04-21 02:59 -6.27189 106.87963 94 ft 7 kts 65°
2026-04-21 02:59 -6.27131 106.88090 93 ft 51 kts 65°
2026-04-21 03:00 -6.26879 106.88637 92 ft 120 kts 65°
2026-04-21 03:00 -6.26433 106.89549 231 ft 159 kts 60°
2026-04-21 03:00 -6.25922 106.90501 960 ft 155 kts 63°
2026-04-21 03:00 -6.25687 106.91592 1432 ft 171 kts 97°
2026-04-21 03:01 -6.26107 106.92746 2010 ft 180 kts 116°
2026-04-21 03:01 -6.26731 106.93884 2517 ft 195 kts 120°
2026-04-21 03:01 -6.27477 106.95133 2882 ft 220 kts 120°
2026-04-21 03:01 -6.28303 106.96513 3331 ft 245 kts 120°
2026-04-21 03:02 -6.29215 106.98056 3935 ft 263 kts 120°
2026-04-21 03:02 -6.30139 106.99641 4855 ft 267 kts 119°
2026-04-21 03:02 -6.31073 107.01272 5801 ft 270 kts 119°
2026-04-21 03:02 -6.32004 107.02916 6705 ft 274 kts 118°
2026-04-21 03:03 -6.32952 107.04597 7581 ft 277 kts 118°
2026-04-21 03:03 -6.34100 107.06178 8424 ft 284 kts 136°
2026-04-21 03:03 -6.35756 107.07249 9262 ft 290 kts 152°
2026-04-21 03:03 -6.37576 107.08168 10108 ft 293 kts 152°
2026-04-21 03:04 -6.39399 107.09254 10446 ft 315 kts 142°
2026-04-21 03:04 -6.41060 107.10767 10679 ft 337 kts 130°
2026-04-21 03:04 -6.42443 107.12749 11103 ft 349 kts 117°
2026-04-21 03:04 -6.43458 107.14993 11768 ft 354 kts 112°
2026-04-21 03:05 -6.44437 107.17248 12468 ft 357 kts 112°
2026-04-21 03:05 -6.45449 107.19554 13183 ft 361 kts 112°
2026-04-21 03:05 -6.46466 107.21860 13855 ft 365 kts 112°
2026-04-21 03:05 -6.47510 107.24219 14463 ft 369 kts 113°
2026-04-21 03:06 -6.48564 107.26597 15062 ft 373 kts 113°
2026-04-21 03:06 -6.49611 107.28962 15653 ft 377 kts 113°
2026-04-21 03:06 -6.50684 107.31397 16233 ft 381 kts 113°
2026-04-21 03:06 -6.51754 107.33826 16806 ft 384 kts 113°
2026-04-21 03:07 -6.52840 107.36292 17370 ft 388 kts 113°
2026-04-21 03:07 -6.53942 107.38796 17923 ft 392 kts 113°
2026-04-21 03:07 -6.55256 107.41224 18418 ft 397 kts 124°
2026-04-21 03:07 -6.57078 107.43297 18873 ft 402 kts 137°
2026-04-21 03:08 -6.59344 107.44920 19327 ft 406 kts 150°
2026-04-21 03:08 -6.61985 107.46004 19790 ft 411 kts 163°
2026-04-21 03:08 -6.64812 107.46599 20256 ft 415 kts 168°
2026-04-21 03:08 -6.67662 107.47158 20715 ft 418 kts 168°
2026-04-21 03:09 -6.70496 107.47721 21155 ft 421 kts 168°
2026-04-21 03:09 -6.73394 107.48299 21596 ft 424 kts 168°
2026-04-21 03:09 -6.76284 107.48873 22029 ft 427 kts 168°
2026-04-21 03:09 -6.79225 107.49454 22450 ft 431 kts 168°
2026-04-21 03:10 -6.82177 107.50087 22862 ft 434 kts 163°
2026-04-21 03:10 -6.84970 107.51197 23254 ft 436 kts 152°
2026-04-21 03:10 -6.87498 107.52860 23635 ft 439 kts 140°
2026-04-21 03:10 -6.89682 107.55027 23970 ft 440 kts 129°
2026-04-21 03:11 -6.91387 107.57559 24297 ft 442 kts 117°
2026-04-21 03:11 -6.92791 107.60328 24647 ft 444 kts 116°
2026-04-21 03:11 -6.94178 107.63088 24986 ft 446 kts 116°
2026-04-21 03:11 -6.95593 107.65910 25314 ft 448 kts 116°
2026-04-21 03:12 -6.96991 107.68698 25642 ft 450 kts 116°
2026-04-21 03:12 -6.98408 107.71529 25961 ft 453 kts 116°
2026-04-21 03:12 -6.99821 107.74346 26279 ft 455 kts 116°
2026-04-21 03:12 -7.01257 107.77201 26603 ft 457 kts 116°
2026-04-21 03:13 -7.02691 107.80054 26919 ft 460 kts 116°
2026-04-21 03:13 -7.04145 107.82949 27235 ft 462 kts 116°
2026-04-21 03:13 -7.05589 107.85825 27546 ft 464 kts 116°
2026-04-21 03:13 -7.07053 107.88740 27832 ft 466 kts 116°
2026-04-21 03:14 -7.08507 107.91635 28116 ft 469 kts 116°
2026-04-21 03:14 -7.09992 107.94588 28401 ft 471 kts 116°
2026-04-21 03:14 -7.11480 107.97546 28676 ft 473 kts 116°
2026-04-21 03:14 -7.12959 108.00487 28934 ft 476 kts 116°
2026-04-21 03:15 -7.14447 108.03453 29191 ft 478 kts 116°
2026-04-21 03:15 -7.15946 108.06450 29455 ft 480 kts 116°
2026-04-21 03:15 -7.17463 108.09482 29725 ft 482 kts 116°
2026-04-21 03:15 -7.18963 108.12479 29980 ft 484 kts 116°
2026-04-21 03:16 -7.20484 108.15515 30224 ft 485 kts 116°
2026-04-21 03:16 -7.21995 108.18528 30540 ft 485 kts 116°
2026-04-21 03:16 -7.23519 108.21571 30864 ft 484 kts 116°
2026-04-21 03:16 -7.25040 108.24607 31202 ft 483 kts 116°
2026-04-21 03:17 -7.26534 108.27592 31533 ft 482 kts 116°
2026-04-21 03:17 -7.28047 108.30617 31885 ft 481 kts 116°
2026-04-21 03:17 -7.29559 108.33636 32238 ft 480 kts 116°
2026-04-21 03:17 -7.31043 108.36599 32573 ft 479 kts 116°
2026-04-21 03:18 -7.32534 108.39580 32867 ft 479 kts 116°
2026-04-21 03:18 -7.34038 108.42592 32948 ft 477 kts 116°
2026-04-21 03:18 -7.36994 108.48527 32948 ft 474 kts 116°
2026-04-21 03:19 -7.39952 108.54439 32948 ft 474 kts 116°
2026-04-21 03:19 -7.42920 108.60355 32940 ft 474 kts 116°
2026-04-21 03:20 -7.45411 108.65327 32940 ft 474 kts 116°
2026-04-21 03:20 -7.48350 108.71220 32939 ft 474 kts 116°
2026-04-21 03:21 -7.51326 108.77196 32933 ft 474 kts 116°
2026-04-21 03:21 -7.54282 108.83111 32933 ft 474 kts 116°
2026-04-21 03:22 -7.57237 108.89033 32924 ft 474 kts 116°
2026-04-21 03:22 -7.60197 108.94994 32930 ft 474 kts 116°
2026-04-21 03:23 -7.63138 109.00929 32918 ft 474 kts 114°
2026-04-21 03:23 -7.64945 109.07301 32915 ft 471 kts 96°
2026-04-21 03:24 -7.65731 109.13834 32916 ft 472 kts 96°
2026-04-21 03:24 -7.66560 109.20403 32911 ft 472 kts 96°
2026-04-21 03:25 -7.67387 109.26950 32907 ft 473 kts 96°
2026-04-21 03:25 -7.67800 109.30260 32653 ft 474 kts 96°
2026-04-21 03:25 -7.68208 109.33535 31255 ft 476 kts 96°
2026-04-21 03:26 -7.68625 109.36913 29357 ft 485 kts 96°
2026-04-21 03:26 -7.69048 109.40305 27393 ft 492 kts 96°
2026-04-21 03:26 -7.69468 109.43676 26073 ft 484 kts 96°
2026-04-21 03:26 -7.69881 109.46982 25341 ft 463 kts 96°
2026-04-21 03:27 -7.70279 109.50162 24577 ft 446 kts 96°
2026-04-21 03:27 -7.70655 109.53186 23848 ft 432 kts 96°
2026-04-21 03:27 -7.71023 109.56161 23081 ft 418 kts 96°
2026-04-21 03:27 -7.71378 109.59035 22399 ft 414 kts 96°
2026-04-21 03:28 -7.71734 109.61925 21741 ft 412 kts 96°
2026-04-21 03:28 -7.72081 109.64754 21143 ft 410 kts 96°
2026-04-21 03:28 -7.72432 109.67610 20524 ft 407 kts 96°
2026-04-21 03:28 -7.72777 109.70427 19959 ft 404 kts 96°
2026-04-21 03:29 -7.73119 109.73218 19391 ft 402 kts 97°
2026-04-21 03:29 -7.73465 109.76023 18825 ft 399 kts 97°
2026-04-21 03:29 -7.73803 109.78761 18310 ft 396 kts 97°
2026-04-21 03:29 -7.74145 109.81514 17743 ft 393 kts 97°
2026-04-21 03:30 -7.74484 109.84247 17203 ft 388 kts 97°
2026-04-21 03:30 -7.74816 109.86922 16680 ft 384 kts 97°
2026-04-21 03:30 -7.75182 109.89561 16122 ft 382 kts 102°
2026-04-21 03:30 -7.76205 109.92015 15576 ft 380 kts 123°
2026-04-21 03:31 -7.78017 109.93935 15027 ft 380 kts 142°
2026-04-21 03:31 -7.80360 109.95147 14677 ft 380 kts 161°
2026-04-21 03:31 -7.82993 109.95577 14536 ft 386 kts 179°
2026-04-21 03:31 -7.85629 109.95188 14330 ft 388 kts 193°
2026-04-21 03:32 -7.88259 109.94511 14104 ft 387 kts 193°
2026-04-21 03:32 -7.90866 109.93817 13890 ft 386 kts 193°
2026-04-21 03:32 -7.93433 109.93121 13670 ft 385 kts 193°
2026-04-21 03:32 -7.96027 109.92413 13439 ft 383 kts 193°
2026-04-21 03:33 -7.98603 109.91714 13240 ft 382 kts 193°
2026-04-21 03:33 -8.01153 109.91028 13027 ft 381 kts 193°
2026-04-21 03:33 -8.03718 109.90342 12724 ft 381 kts 193°
2026-04-21 03:33 -8.06304 109.89657 12090 ft 375 kts 193°
2026-04-21 03:34 -8.08702 109.89023 11927 ft 346 kts 192°
2026-04-21 03:34 -8.10954 109.88426 11767 ft 322 kts 192°
2026-04-21 03:34 -8.13063 109.87876 11312 ft 310 kts 190°
2026-04-21 03:34 -8.15178 109.87839 10708 ft 298 kts 164°
2026-04-21 03:35 -8.17016 109.88702 10092 ft 289 kts 139°
2026-04-21 03:35 -8.18261 109.90194 9728 ft 278 kts 116°
2026-04-21 03:35 -8.18862 109.92015 9313 ft 268 kts 102°
2026-04-21 03:35 -8.19264 109.93824 8925 ft 269 kts 102°
2026-04-21 03:36 -8.19648 109.95684 8524 ft 268 kts 97°
2026-04-21 03:36 -8.19408 109.97535 8139 ft 268 kts 68°
2026-04-21 03:36 -8.18303 109.99048 7623 ft 276 kts 40°
2026-04-21 03:36 -8.16552 109.99831 7277 ft 279 kts 14°
2026-04-21 03:37 -8.14666 110.00224 7013 ft 273 kts 14°
2026-04-21 03:37 -8.12782 110.00404 6673 ft 274 kts 358°
2026-04-21 03:37 -8.10930 109.99976 6304 ft 278 kts 338°
2026-04-21 03:37 -8.09232 109.99023 5894 ft 278 kts 330°
2026-04-21 03:38 -8.07572 109.98020 5541 ft 276 kts 330°
2026-04-21 03:38 -8.05940 109.97036 5200 ft 274 kts 330°
2026-04-21 03:38 -8.04301 109.96051 4832 ft 273 kts 331°
2026-04-21 03:38 -8.02644 109.95058 4284 ft 277 kts 330°
2026-04-21 03:39 -8.00978 109.94063 3640 ft 282 kts 330°
2026-04-21 03:39 -7.99308 109.93066 3069 ft 275 kts 330°
2026-04-21 03:39 -7.97689 109.92098 2667 ft 261 kts 330°
2026-04-21 03:39 -7.96214 109.91213 2612 ft 236 kts 330°
2026-04-21 03:40 -7.94863 109.90402 2552 ft 216 kts 331°
2026-04-21 03:40 -7.93590 109.89681 2518 ft 207 kts 339°
2026-04-21 03:40 -7.92233 109.89301 2365 ft 199 kts 349°
2026-04-21 03:40 -7.90905 109.88993 2183 ft 188 kts 348°
2026-04-21 03:41 -7.89666 109.88896 2053 ft 176 kts
2026-04-21 03:41 -7.88512 109.89255 1931 ft 171 kts 31°
2026-04-21 03:41 -7.87598 109.89980 1981 ft 169 kts 52°
2026-04-21 03:41 -7.86890 109.90925 1968 ft 166 kts 55°
2026-04-21 03:42 -7.86272 109.91909 1955 ft 165 kts 70°
2026-04-21 03:42 -7.86064 109.93020 1969 ft 164 kts 91°
2026-04-21 03:42 -7.86295 109.94133 1982 ft 164 kts 111°
2026-04-21 03:42 -7.86688 109.95196 1815 ft 159 kts 112°
2026-04-21 03:43 -7.87056 109.96207 1649 ft 149 kts 111°
2026-04-21 03:43 -7.87406 109.97165 1457 ft 143 kts 111°
2026-04-21 03:43 -7.87744 109.98090 1275 ft 141 kts 112°
2026-04-21 03:43 -7.88082 109.99016 1118 ft 139 kts 111°
2026-04-21 03:44 -7.88411 109.99917 931 ft 135 kts 112°
2026-04-21 03:44 -7.88734 110.00802 779 ft 136 kts 112°
2026-04-21 03:44 -7.88928 110.01225 674 ft 136 kts 126°
2026-04-21 03:45 -7.89246 110.02095 587 ft 138 kts 103°
2026-04-21 03:45 -7.89529 110.03011 423 ft 137 kts 115°
2026-04-21 03:45 -7.89863 110.03910 175 ft 133 kts 112°
2026-04-21 03:45 -7.90178 110.04775 33 ft 123 kts 111°
2026-04-21 03:46 -7.90417 110.05412 31 ft 74 kts 111°
2026-04-21 03:46 -7.90545 110.05764 35 ft 43 kts 109°
2026-04-21 03:46 -7.90645 110.06036 33 ft 41 kts 107°
2026-04-21 03:46 -7.90666 110.06238 34 ft 26 kts 84°
2026-04-21 03:47 -7.90610 110.06344 35 ft 16 kts
2026-04-21 03:47 -7.90548 110.06267 35 ft 15 kts 287°
2026-04-21 03:47 -7.90516 110.06174 36 ft 13 kts 291°
2026-04-21 03:47 -7.90486 110.06098 35 ft 11 kts 291°
2026-04-21 03:48 -7.90462 110.06031 38 ft 9 kts 288°
2026-04-21 03:48 -7.90441 110.05969 37 ft 9 kts 290°
2026-04-21 03:48 -7.90416 110.05903 37 ft 11 kts 290°
2026-04-21 03:48 -7.90387 110.05827 37 ft 12 kts 291°
2026-04-21 03:49 -7.90338 110.05751 38 ft 14 kts 348°
2026-04-21 03:49 -7.90232 110.05787 38 ft 12 kts 20°
2026-04-21 03:49 -7.90169 110.05767 38 ft 6 kts 336°
2026-04-21 03:49 -7.90130 110.05774 38 ft 6 kts 20°
2026-04-21 03:50 -7.90096 110.05788 38 ft 5 kts 21°
2026-04-21 03:50 -7.90083 110.05792 38 ft 0 kts 21°